| time (UTC) | temp F | wind direction | speed MPH | gust MPH | rain 1hr in | rain 24hr in | rain mn in | humidity % | barometer mb |
| 20260505173033 | 84 | 268 | 6.0 | 8.0 | 0.00 | 0.00 | 0.00 | 49 | 1087.9 |
| 20260505172531 | 84 | 206 | 2.0 | 2.0 | 0.00 | 0.00 | 0.00 | 52 | 1087.5 |
| 20260505172027 | 83 | 256 | 2.0 | 3.0 | 0.00 | 0.00 | 0.00 | 52 | 1087.8 |
| 20260505171522 | 82 | 272 | 3.0 | 3.0 | 0.00 | 0.00 | 0.00 | 56 | 1087.8 |
| 20260505171019 | 82 | 239 | 7.0 | 8.0 | 0.00 | 0.00 | 0.00 | 56 | 1087.6 |
| 20260505170516 | 82 | 252 | 6.0 | 7.0 | 0.00 | 0.00 | 0.00 | 59 | 1087.9 |
| 20260505170013 | 82 | 250 | 2.0 | 2.0 | 0.00 | 0.00 | 0.00 | 63 | 1087.9 |
| 20260505165508 | 81 | 205 | 2.0 | 3.0 | 0.00 | 0.00 | 0.00 | 65 | 1088.0 |
| 20260505165004 | 80 | 258 | 5.0 | 6.0 | 0.00 | 0.00 | 0.00 | 66 | 1087.8 |
| 20260505164500 | 79 | 178 | 5.0 | 7.0 | 0.00 | 0.00 | 0.00 | 67 | 1088.1 |
| 20260505163958 | 79 | 218 | 1.0 | 2.0 | 0.00 | 0.00 | 0.00 | 70 | 1088.0 |
| 20260505163456 | 78 | 232 | 1.0 | 1.0 | 0.00 | 0.00 | 0.00 | 71 | 1088.0 |
| 20260505162955 | 78 | 248 | 3.0 | 3.0 | 0.00 | 0.00 | 0.00 | 72 | 1088.0 |
| 20260505162451 | 78 | 258 | 4.0 | 4.0 | 0.00 | 0.00 | 0.00 | 73 | 1087.9 |
| 20260505161947 | 77 | 269 | 6.0 | 7.0 | 0.00 | 0.00 | 0.00 | 74 | 1087.9 |
| 20260505161444 | 77 | 201 | 3.0 | 6.0 | 0.00 | 0.00 | 0.00 | 75 | 1088.0 |
| 20260505160942 | 77 | 213 | 3.0 | 3.0 | 0.00 | 0.00 | 0.00 | 76 | 1088.0 |
| 20260505160440 | 77 | 214 | 3.0 | 4.0 | 0.00 | 0.00 | 0.00 | 77 | 1088.2 |
| 20260505152916 | 75 | 213 | 3.0 | 6.0 | 0.00 | 0.00 | 0.00 | 81 | 1087.7 |
| 20260505152414 | 75 | 211 | 1.0 | 1.0 | 0.00 | 0.00 | 0.00 | 82 | 1087.9 |
| 20260505151913 | 74 | 229 | 3.0 | 4.0 | 0.00 | 0.00 | 0.00 | 82 | 1087.8 |
| 20260505151410 | 73 | 201 | 4.0 | 6.0 | 0.00 | 0.00 | 0.00 | 83 | 1087.7 |
| 20260505150908 | 73 | 228 | 1.0 | 1.0 | 0.00 | 0.00 | 0.00 | 84 | 1087.5 |
| 20260505150405 | 73 | 181 | 4.0 | 6.0 | 0.00 | 0.00 | 0.00 | 84 | 1087.6 |
| 20260505140334 | 69 | 177 | 6.0 | 9.0 | 0.00 | 0.00 | 0.00 | 89 | 1087.6 |
| 20260505130257 | 67 | 186 | 8.0 | 11.0 | 0.00 | 0.00 | 0.00 | 93 | 1087.1 |
| 20260505124748 | 67 | 197 | 4.0 | 6.0 | 0.00 | 0.00 | 0.00 | 93 | 1087.3 |
| 20260505124245 | 67 | 193 | 6.0 | 9.0 | 0.00 | 0.00 | 0.00 | 93 | 1087.4 |
| 20260505123740 | 67 | 200 | 5.0 | 6.0 | 0.00 | 0.00 | 0.00 | 94 | 1086.9 |
| 20260505123237 | 66 | 161 | 3.0 | 4.0 | 0.00 | 0.00 | 0.00 | 94 | 1087.4 |
| 20260505122734 | 66 | 195 | 4.0 | 6.0 | 0.00 | 0.00 | 0.00 | 94 | 1087.0 |
| 20260505122231 | 66 | 185 | 3.0 | 4.0 | 0.00 | 0.00 | 0.00 | 94 | 1086.8 |
| 20260505121728 | 66 | 177 | 3.0 | 4.0 | 0.00 | 0.00 | 0.00 | 94 | 1086.8 |
| 20260505121224 | 66 | 215 | 5.0 | 7.0 | 0.00 | 0.00 | 0.00 | 93 | 1086.5 |
| 20260505120721 | 66 | 165 | 4.0 | 7.0 | 0.00 | 0.00 | 0.00 | 93 | 1086.6 |
| 20260505120217 | 66 | 190 | 4.0 | 6.0 | 0.00 | 0.00 | 0.00 | 93 | 1086.6 |
| 20260505115715 | 66 | 177 | 4.0 | 4.0 | 0.00 | 0.00 | 0.00 | 93 | 1086.4 |
| 20260505115213 | 66 | 176 | 3.0 | 4.0 | 0.00 | 0.00 | 0.00 | 93 | 1086.5 |
| 20260505114711 | 66 | 183 | 5.0 | 7.0 | 0.00 | 0.00 | 0.00 | 92 | 1086.4 |
| 20260505114206 | 66 | 176 | 4.0 | 6.0 | 0.00 | 0.00 | 0.00 | 93 | 1086.6 |
| 20260505113703 | 66 | 214 | 3.0 | 4.0 | 0.00 | 0.00 | 0.00 | 92 | 1086.3 |
| 20260505113200 | 65 | 166 | 2.0 | 3.0 | 0.00 | 0.00 | 0.00 | 92 | 1086.1 |
| 20260505112656 | 65 | 182 | 2.0 | 2.0 | 0.00 | 0.00 | 0.00 | 92 | 1086.4 |
| 20260505112154 | 65 | 177 | 4.0 | 6.0 | 0.00 | 0.00 | 0.00 | 92 | 1086.1 |
| 20260505111653 | 65 | 191 | 4.0 | 4.0 | 0.00 | 0.00 | 0.00 | 92 | 1086.2 |
| 20260505111149 | 65 | 187 | 4.0 | 6.0 | 0.00 | 0.00 | 0.00 | 92 | 1085.9 |
| 20260505110646 | 66 | 145 | 4.0 | 6.0 | 0.00 | 0.00 | 0.00 | 91 | 1086.0 |
| 20260505110143 | 66 | 158 | 3.0 | 3.0 | 0.00 | 0.00 | 0.00 | 91 | 1086.1 |
| 20260505102119 | 66 | 160 | 6.0 | 8.0 | 0.00 | 0.00 | 0.00 | 90 | 1085.7 |
| 20260505101617 | 66 | 160 | 4.0 | 6.0 | 0.00 | 0.00 | 0.00 | 90 | 1085.8 |
| 20260505101113 | 66 | 175 | 5.0 | 7.0 | 0.00 | 0.00 | 0.00 | 89 | 1085.8 |
| 20260505100610 | 66 | 203 | 3.0 | 3.0 | 0.00 | 0.00 | 0.00 | 89 | 1085.7 |
| 20260505100107 | 66 | 143 | 3.0 | 3.0 | 0.00 | 0.00 | 0.00 | 89 | 1085.7 |
| 20260505095603 | 66 | 137 | 6.0 | 8.0 | 0.00 | 0.00 | 0.00 | 89 | 1086.0 |
| 20260505095059 | 66 | 155 | 5.0 | 7.0 | 0.00 | 0.00 | 0.00 | 89 | 1085.8 |
| 20260505094556 | 66 | 177 | 4.0 | 6.0 | 0.00 | 0.00 | 0.00 | 88 | 1085.9 |
| 20260505094052 | 66 | 189 | 5.0 | 7.0 | 0.00 | 0.00 | 0.00 | 88 | 1085.9 |
| 20260505093549 | 67 | 164 | 3.0 | 3.0 | 0.00 | 0.00 | 0.00 | 88 | 1085.9 |
| 20260505093046 | 67 | 167 | 4.0 | 4.0 | 0.00 | 0.00 | 0.00 | 87 | 1085.8 |
| 20260505092544 | 67 | 156 | 6.0 | 9.0 | 0.00 | 0.00 | 0.00 | 87 | 1085.9 |
| 20260505092042 | 67 | 183 | 5.0 | 7.0 | 0.00 | 0.00 | 0.00 | 87 | 1085.7 |
| 20260505091538 | 67 | 148 | 6.0 | 11.0 | 0.00 | 0.00 | 0.00 | 86 | 1085.7 |
| 20260505091037 | 67 | 206 | 6.0 | 10.0 | 0.00 | 0.00 | 0.00 | 87 | 1085.7 |
| 20260505090534 | 67 | 182 | 6.0 | 7.0 | 0.00 | 0.00 | 0.00 | 86 | 1085.9 |
| 20260505090032 | 67 | 181 | 7.0 | 10.0 | 0.00 | 0.00 | 0.00 | 86 | 1086.2 |
| 20260505085530 | 67 | 159 | 4.0 | 7.0 | 0.00 | 0.00 | 0.00 | 86 | 1086.1 |
| 20260505085028 | 67 | 198 | 6.0 | 8.0 | 0.00 | 0.00 | 0.00 | 86 | 1086.3 |
| 20260505084525 | 67 | 190 | 7.0 | 9.0 | 0.00 | 0.00 | 0.00 | 86 | 1086.3 |
| 20260505084023 | 67 | 179 | 4.0 | 6.0 | 0.00 | 0.00 | 0.00 | 86 | 1086.0 |
| 20260505083520 | 67 | 176 | 4.0 | 6.0 | 0.00 | 0.00 | 0.00 | 86 | 1086.3 |
| 20260505083017 | 68 | 185 | 4.0 | 6.0 | 0.00 | 0.00 | 0.00 | 85 | 1086.1 |
| 20260505082512 | 68 | 182 | 5.0 | 6.0 | 0.00 | 0.00 | 0.00 | 85 | 1086.1 |
| 20260505082009 | 68 | 181 | 2.0 | 3.0 | 0.00 | 0.00 | 0.00 | 85 | 1086.1 |
| 20260505081506 | 68 | 157 | 6.0 | 7.0 | 0.00 | 0.00 | 0.00 | 85 | 1086.4 |
| 20260505081003 | 68 | 197 | 5.0 | 7.0 | 0.00 | 0.00 | 0.00 | 85 | 1086.3 |
| 20260505080459 | 68 | 186 | 8.0 | 11.0 | 0.00 | 0.00 | 0.00 | 85 | 1086.2 |
| 20260505075955 | 68 | 168 | 5.0 | 6.0 | 0.00 | 0.00 | 0.00 | 84 | 1086.3 |
| 20260505075452 | 68 | 165 | 4.0 | 6.0 | 0.00 | 0.00 | 0.00 | 84 | 1086.4 |
| 20260505074949 | 68 | 192 | 6.0 | 7.0 | 0.00 | 0.00 | 0.00 | 84 | 1086.4 |
| 20260505074446 | 68 | 203 | 8.0 | 10.0 | 0.00 | 0.00 | 0.00 | 84 | 1086.5 |
| 20260505073943 | 68 | 213 | 6.0 | 8.0 | 0.00 | 0.00 | 0.00 | 84 | 1086.5 |
| 20260505073441 | 68 | 176 | 5.0 | 6.0 | 0.00 | 0.00 | 0.00 | 83 | 1086.6 |
| 20260505072938 | 68 | 213 | 4.0 | 9.0 | 0.00 | 0.00 | 0.00 | 84 | 1086.5 |
| 20260505072434 | 68 | 172 | 3.0 | 3.0 | 0.00 | 0.00 | 0.00 | 83 | 1086.6 |
| 20260505071930 | 68 | 178 | 4.0 | 7.0 | 0.00 | 0.00 | 0.00 | 83 | 1086.6 |
| 20260505071426 | 69 | 136 | 5.0 | 6.0 | 0.00 | 0.00 | 0.00 | 83 | 1086.9 |
| 20260505070925 | 69 | 206 | 4.0 | 6.0 | 0.00 | 0.00 | 0.00 | 82 | 1086.9 |
| 20260505070421 | 69 | 171 | 3.0 | 4.0 | 0.00 | 0.00 | 0.00 | 82 | 1086.9 |
| 20260505065916 | 69 | 135 | 6.0 | 9.0 | 0.00 | 0.00 | 0.00 | 82 | 1086.7 |
| 20260505065413 | 69 | 200 | 7.0 | 8.0 | 0.00 | 0.00 | 0.00 | 82 | 1086.9 |
| 20260505064910 | 69 | 189 | 6.0 | 10.0 | 0.00 | 0.00 | 0.00 | 82 | 1086.9 |
| 20260505064407 | 69 | 142 | 5.0 | 8.0 | 0.00 | 0.00 | 0.00 | 82 | 1086.9 |
| 20260505063906 | 69 | 184 | 6.0 | 7.0 | 0.00 | 0.00 | 0.00 | 81 | 1087.0 |
| 20260505063402 | 69 | 173 | 7.0 | 8.0 | 0.00 | 0.00 | 0.00 | 81 | 1087.1 |
| 20260505062858 | 69 | 164 | 6.0 | 8.0 | 0.00 | 0.00 | 0.00 | 81 | 1087.1 |
| 20260505062355 | 69 | 164 | 6.0 | 8.0 | 0.00 | 0.00 | 0.00 | 81 | 1087.4 |
| 20260505061852 | 69 | 150 | 6.0 | 8.0 | 0.00 | 0.00 | 0.00 | 81 | 1087.3 |
| 20260505061351 | 70 | 174 | 6.0 | 8.0 | 0.00 | 0.00 | 0.00 | 80 | 1087.0 |
| 20260505060848 | 70 | 205 | 5.0 | 6.0 | 0.00 | 0.00 | 0.00 | 80 | 1087.5 |
| 20260505060344 | 70 | 187 | 4.0 | 6.0 | 0.00 | 0.00 | 0.00 | 80 | 1087.0 |
| 20260505055840 | 70 | 168 | 6.0 | 9.0 | 0.00 | 0.00 | 0.00 | 80 | 1087.4 |
| 20260505055336 | 70 | 207 | 8.0 | 9.0 | 0.00 | 0.00 | 0.00 | 80 | 1087.5 |
| 20260505054834 | 70 | 192 | 7.0 | 10.0 | 0.00 | 0.00 | 0.00 | 79 | 1087.4 |
| 20260505054331 | 70 | 213 | 7.0 | 11.0 | 0.00 | 0.00 | 0.00 | 79 | 1087.6 |
| 20260505053829 | 70 | 182 | 4.0 | 6.0 | 0.00 | 0.00 | 0.00 | 79 | 1087.6 |
| 20260505053325 | 71 | 172 | 6.0 | 9.0 | 0.00 | 0.00 | 0.00 | 78 | 1087.5 |
| 20260505052822 | 71 | 215 | 5.0 | 7.0 | 0.00 | 0.00 | 0.00 | 78 | 1087.8 |
| 20260505052319 | 71 | 166 | 6.0 | 7.0 | 0.00 | 0.00 | 0.00 | 78 | 1087.5 |
| 20260505051817 | 71 | 204 | 5.0 | 7.0 | 0.00 | 0.00 | 0.00 | 77 | 1087.6 |
| 20260505051314 | 71 | 195 | 3.0 | 3.0 | 0.00 | 0.00 | 0.00 | 77 | 1087.7 |
| 20260505050812 | 71 | 210 | 10.0 | 14.0 | 0.00 | 0.00 | 0.00 | 76 | 1087.5 |
| 20260505050310 | 71 | 179 | 2.0 | 3.0 | 0.00 | 0.00 | 0.00 | 77 | 1087.5 |
| 20260505041740 | 73 | 171 | 7.0 | 10.0 | 0.00 | 0.00 | 0.00 | 74 | 1087.8 |
| 20260505041237 | 73 | 190 | 6.0 | 9.0 | 0.00 | 0.00 | 0.00 | 74 | 1087.5 |
| 20260505040735 | 73 | 187 | 5.0 | 9.0 | 0.00 | 0.00 | 0.00 | 74 | 1087.5 |
| 20260505040232 | 73 | 170 | 6.0 | 8.0 | 0.00 | 0.00 | 0.00 | 74 | 1087.6 |
| 20260505035729 | 73 | 165 | 3.0 | 4.0 | 0.00 | 0.00 | 0.00 | 74 | 1087.4 |
| 20260505035224 | 73 | 179 | 5.0 | 9.0 | 0.00 | 0.00 | 0.00 | 73 | 1087.6 |
| 20260505034721 | 73 | 218 | 8.0 | 10.0 | 0.00 | 0.00 | 0.00 | 73 | 1087.4 |
| 20260505034218 | 73 | 199 | 8.0 | 11.0 | 0.00 | 0.00 | 0.00 | 73 | 1087.4 |
| 20260505033715 | 73 | 182 | 7.0 | 9.0 | 0.00 | 0.00 | 0.00 | 72 | 1087.4 |
| 20260505033213 | 73 | 161 | 6.0 | 8.0 | 0.00 | 0.00 | 0.00 | 72 | 1087.0 |
| 20260505032711 | 73 | 152 | 3.0 | 3.0 | 0.00 | 0.00 | 0.00 | 71 | 1086.9 |
| 20260505032206 | 74 | 196 | 11.0 | 13.0 | 0.00 | 0.00 | 0.00 | 70 | 1087.0 |
| 20260505031704 | 74 | 215 | 4.0 | 6.0 | 0.00 | 0.00 | 0.00 | 70 | 1086.9 |
| 20260505031200 | 74 | 195 | 6.0 | 8.0 | 0.00 | 0.00 | 0.00 | 69 | 1087.1 |
| 20260505030657 | 74 | 193 | 7.0 | 9.0 | 0.00 | 0.00 | 0.00 | 69 | 1086.9 |
| 20260505030153 | 75 | 224 | 8.0 | 9.0 | 0.00 | 0.00 | 0.00 | 68 | 1086.8 |
| 20260505025649 | 75 | 138 | 4.0 | 4.0 | 0.00 | 0.00 | 0.00 | 68 | 1086.7 |
| 20260505025148 | 75 | 163 | 5.0 | 7.0 | 0.00 | 0.00 | 0.00 | 67 | 1086.7 |
| 20260505024645 | 75 | 160 | 6.0 | 9.0 | 0.00 | 0.00 | 0.00 | 67 | 1086.6 |
| 20260505024142 | 75 | 185 | 7.0 | 10.0 | 0.00 | 0.00 | 0.00 | 66 | 1086.8 |
| 20260505023639 | 75 | 188 | 8.0 | 10.0 | 0.00 | 0.00 | 0.00 | 65 | 1086.5 |
| 20260505023137 | 75 | 173 | 5.0 | 7.0 | 0.00 | 0.00 | 0.00 | 65 | 1086.6 |
| 20260505022634 | 76 | 198 | 7.0 | 9.0 | 0.00 | 0.00 | 0.00 | 64 | 1086.5 |
| 20260505022131 | 76 | 184 | 4.0 | 4.0 | 0.00 | 0.00 | 0.00 | 64 | 1086.6 |
| 20260505021627 | 76 | 214 | 8.0 | 9.0 | 0.00 | 0.00 | 0.00 | 63 | 1086.5 |
| 20260505021124 | 77 | 177 | 4.0 | 4.0 | 0.00 | 0.00 | 0.00 | 62 | 1086.4 |
| 20260505020620 | 77 | 158 | 5.0 | 6.0 | 0.00 | 0.00 | 0.00 | 62 | 1086.7 |
| 20260505020116 | 77 | 192 | 6.0 | 7.0 | 0.00 | 0.00 | 0.00 | 61 | 1086.6 |
| 20260505015613 | 77 | 165 | 2.0 | 4.0 | 0.00 | 0.00 | 0.00 | 62 | 1086.3 |
| 20260505015110 | 77 | 180 | 4.0 | 4.0 | 0.00 | 0.00 | 0.00 | 61 | 1086.4 |
| 20260505014607 | 77 | 203 | 4.0 | 4.0 | 0.00 | 0.00 | 0.00 | 60 | 1086.7 |
| 20260505014104 | 78 | 205 | 9.0 | 11.0 | 0.00 | 0.00 | 0.00 | 60 | 1086.7 |
| 20260505013601 | 78 | 212 | 6.0 | 8.0 | 0.00 | 0.00 | 0.00 | 60 | 1086.3 |
| 20260505013058 | 78 | 213 | 6.0 | 10.0 | 0.00 | 0.00 | 0.00 | 59 | 1086.5 |
| 20260505012556 | 78 | 232 | 8.0 | 9.0 | 0.00 | 0.00 | 0.00 | 58 | 1086.4 |
| 20260505012053 | 78 | 194 | 4.0 | 8.0 | 0.00 | 0.00 | 0.00 | 58 | 1086.3 |
| 20260505011548 | 79 | 180 | 4.0 | 4.0 | 0.00 | 0.00 | 0.00 | 58 | 1086.5 |
| 20260505011046 | 79 | 212 | 4.0 | 7.0 | 0.00 | 0.00 | 0.00 | 57 | 1086.3 |
| 20260505010541 | 80 | 187 | 4.0 | 4.0 | 0.00 | 0.00 | 0.00 | 56 | 1086.6 |
| 20260505010038 | 80 | 158 | 3.0 | 6.0 | 0.00 | 0.00 | 0.00 | 55 | 1086.5 |
| 20260505005534 | 80 | 210 | 1.0 | 2.0 | 0.00 | 0.00 | 0.00 | 54 | 1086.4 |
| 20260505005032 | 80 | 222 | 5.0 | 7.0 | 0.00 | 0.00 | 0.00 | 53 | 1086.8 |
| 20260505004529 | 81 | 196 | 3.0 | 4.0 | 0.00 | 0.00 | 0.00 | 54 | 1086.5 |
| 20260505004025 | 81 | 193 | 4.0 | 4.0 | 0.00 | 0.00 | 0.00 | 54 | 1086.4 |
| 20260505003523 | 81 | 198 | 7.0 | 10.0 | 0.00 | 0.00 | 0.00 | 53 | 1086.5 |
| 20260505003020 | 81 | 185 | 5.0 | 7.0 | 0.00 | 0.00 | 0.00 | 52 | 1086.4 |
| 20260505002515 | 81 | 209 | 2.0 | 3.0 | 0.00 | 0.00 | 0.00 | 53 | 1086.4 |
| 20260505002014 | 82 | 237 | 5.0 | 10.0 | 0.00 | 0.00 | 0.00 | 52 | 1086.4 |
| 20260505001511 | 82 | 224 | 1.0 | 1.0 | 0.00 | 0.00 | 0.00 | 51 | 1086.5 |
| 20260505001008 | 82 | 219 | 5.0 | 7.0 | 0.00 | 0.00 | 0.00 | 51 | 1086.4 |
| 20260505000506 | 83 | 227 | 2.0 | 2.0 | 0.00 | 0.00 | 0.00 | 51 | 1086.6 |
| 20260505000003 | 83 | 182 | 10.0 | 14.0 | 0.00 | 0.00 | 0.00 | 50 | 1086.7 |
| 20260504235500 | 83 | 210 | 6.0 | 8.0 | 0.00 | 0.00 | 0.00 | 50 | 1086.7 |
| 20260504234956 | 84 | 288 | 4.0 | 10.0 | 0.00 | 0.00 | 0.00 | 50 | 1086.7 |
| 20260504234453 | 84 | 223 | 6.0 | 9.0 | 0.00 | 0.00 | 0.00 | 50 | 1086.9 |
| 20260504233949 | 84 | 158 | 4.0 | 6.0 | 0.00 | 0.00 | 0.00 | 49 | 1086.5 |
| 20260504233445 | 84 | 217 | 6.0 | 9.0 | 0.00 | 0.00 | 0.00 | 48 | 1086.6 |
| 20260504232943 | 84 | 199 | 4.0 | 6.0 | 0.00 | 0.00 | 0.00 | 48 | 1086.9 |
| 20260504232440 | 84 | 217 | 7.0 | 9.0 | 0.00 | 0.00 | 0.00 | 48 | 1086.7 |
| 20260504231937 | 85 | 262 | 6.0 | 9.0 | 0.00 | 0.00 | 0.00 | 48 | 1086.7 |
| 20260504231433 | 84 | 194 | 5.0 | 8.0 | 0.00 | 0.00 | 0.00 | 48 | 1086.6 |
| 20260504230929 | 85 | 142 | 4.0 | 7.0 | 0.00 | 0.00 | 0.00 | 47 | 1086.8 |
| 20260504230426 | 85 | 167 | 7.0 | 10.0 | 0.00 | 0.00 | 0.00 | 48 | 1086.7 |
| 20260504225926 | 85 | 172 | 8.0 | 10.0 | 0.00 | 0.00 | 0.00 | 48 | 1086.6 |
| 20260504225422 | 85 | 178 | 4.0 | 7.0 | 0.00 | 0.00 | 0.00 | 47 | 1086.9 |
| 20260504224919 | 86 | 274 | 6.0 | 9.0 | 0.00 | 0.00 | 0.00 | 47 | 1086.8 |
| 20260504224415 | 86 | 269 | 4.0 | 4.0 | 0.00 | 0.00 | 0.00 | 46 | 1086.8 |
| 20260504223913 | 84 | 172 | 6.0 | 9.0 | 0.00 | 0.00 | 0.00 | 46 | 1086.8 |
| 20260504223408 | 85 | 232 | 4.0 | 6.0 | 0.00 | 0.00 | 0.00 | 46 | 1087.1 |
| 20260504222904 | 86 | 171 | 5.0 | 9.0 | 0.00 | 0.00 | 0.00 | 46 | 1086.8 |
| 20260504222401 | 86 | 240 | 6.0 | 15.0 | 0.00 | 0.00 | 0.00 | 46 | 1086.9 |
| 20260504221900 | 86 | 179 | 4.0 | 8.0 | 0.00 | 0.00 | 0.00 | 46 | 1086.8 |
| 20260504221356 | 86 | 231 | 2.0 | 3.0 | 0.00 | 0.00 | 0.00 | 47 | 1087.1 |
| 20260504220854 | 87 | 205 | 6.0 | 10.0 | 0.00 | 0.00 | 0.00 | 45 | 1087.0 |
| 20260504220350 | 86 | 196 | 3.0 | 4.0 | 0.00 | 0.00 | 0.00 | 48 | 1086.9 |
| 20260504215847 | 86 | 227 | 5.0 | 8.0 | 0.00 | 0.00 | 0.00 | 47 | 1087.1 |
| 20260504215343 | 87 | 180 | 8.0 | 13.0 | 0.00 | 0.00 | 0.00 | 46 | 1087.3 |
| 20260504214840 | 87 | 188 | 7.0 | 9.0 | 0.00 | 0.00 | 0.00 | 45 | 1087.3 |
| 20260504214337 | 86 | 227 | 4.0 | 4.0 | 0.00 | 0.00 | 0.00 | 47 | 1087.4 |
| 20260504213833 | 87 | 232 | 2.0 | 2.0 | 0.00 | 0.00 | 0.00 | 44 | 1087.4 |
| 20260504213329 | 86 | 263 | 4.0 | 6.0 | 0.00 | 0.00 | 0.00 | 45 | 1087.5 |
| 20260504212827 | 86 | 261 | 8.0 | 9.0 | 0.00 | 0.00 | 0.00 | 45 | 1087.8 |
| 20260504212323 | 86 | 185 | 3.0 | 4.0 | 0.00 | 0.00 | 0.00 | 47 | 1087.9 |
| 20260504211821 | 87 | 188 | 9.0 | 11.0 | 0.00 | 0.00 | 0.00 | 45 | 1087.8 |
| 20260504211316 | 86 | 190 | 5.0 | 7.0 | 0.00 | 0.00 | 0.00 | 46 | 1088.0 |
| 20260504210814 | 87 | 177 | 6.0 | 7.0 | 0.00 | 0.00 | 0.00 | 46 | 1087.8 |
| 20260504210311 | 86 | 146 | 7.0 | 10.0 | 0.00 | 0.00 | 0.00 | 46 | 1088.1 |
| 20260504205808 | 86 | 246 | 4.0 | 7.0 | 0.00 | 0.00 | 0.00 | 46 | 1088.3 |
| 20260504205306 | 86 | 231 | 9.0 | 13.0 | 0.00 | 0.00 | 0.00 | 46 | 1088.6 |
| 20260504204804 | 86 | 268 | 3.0 | 6.0 | 0.00 | 0.00 | 0.00 | 48 | 1088.4 |
| 20260504204302 | 86 | 185 | 5.0 | 9.0 | 0.00 | 0.00 | 0.00 | 48 | 1088.4 |
| 20260504203801 | 86 | 147 | 2.0 | 4.0 | 0.00 | 0.00 | 0.00 | 47 | 1088.3 |
| 20260504203258 | 85 | 245 | 2.0 | 3.0 | 0.00 | 0.00 | 0.00 | 49 | 1088.4 |
| 20260504202758 | 85 | 199 | 7.0 | 10.0 | 0.00 | 0.00 | 0.00 | 47 | 1088.6 |
| 20260504202256 | 84 | 238 | 5.0 | 7.0 | 0.00 | 0.00 | 0.00 | 49 | 1088.6 |
| 20260504201752 | 84 | 192 | 4.0 | 7.0 | 0.00 | 0.00 | 0.00 | 50 | 1088.7 |
| 20260504201250 | 84 | 163 | 5.0 | 8.0 | 0.00 | 0.00 | 0.00 | 50 | 1088.7 |
| 20260504200748 | 84 | 192 | 3.0 | 4.0 | 0.00 | 0.00 | 0.00 | 51 | 1088.7 |
| 20260504200243 | 85 | 211 | 4.0 | 4.0 | 0.00 | 0.00 | 0.00 | 50 | 1089.1 |
| 20260504195740 | 84 | 191 | 7.0 | 9.0 | 0.00 | 0.00 | 0.00 | 49 | 1088.9 |
| 20260504195236 | 84 | 254 | 5.0 | 8.0 | 0.00 | 0.00 | 0.00 | 52 | 1089.0 |
| 20260504194733 | 84 | 208 | 4.0 | 4.0 | 0.00 | 0.00 | 0.00 | 52 | 1089.1 |
| 20260504194229 | 84 | 205 | 3.0 | 3.0 | 0.00 | 0.00 | 0.00 | 52 | 1089.1 |
| 20260504193726 | 84 | 220 | 4.0 | 4.0 | 0.00 | 0.00 | 0.00 | 51 | 1089.0 |
| 20260504193223 | 84 | 271 | 8.0 | 10.0 | 0.00 | 0.00 | 0.00 | 49 | 1088.9 |
| 20260504192721 | 84 | 244 | 5.0 | 7.0 | 0.00 | 0.00 | 0.00 | 51 | 1089.3 |
| 20260504192219 | 84 | 276 | 5.0 | 10.0 | 0.00 | 0.00 | 0.00 | 51 | 1089.3 |
| 20260504191718 | 83 | 156 | 5.0 | 6.0 | 0.00 | 0.00 | 0.00 | 51 | 1089.4 |
| 20260504191214 | 84 | 177 | 6.0 | 10.0 | 0.00 | 0.00 | 0.00 | 50 | 1089.8 |
| 20260504190709 | 82 | 187 | 4.0 | 6.0 | 0.00 | 0.00 | 0.00 | 53 | 1089.7 |
| 20260504190206 | 82 | 246 | 4.0 | 7.0 | 0.00 | 0.00 | 0.00 | 53 | 1089.7 |
| 20260504185703 | 82 | 191 | 2.0 | 3.0 | 0.00 | 0.00 | 0.00 | 53 | 1089.7 |
| 20260504185159 | 82 | 289 | 4.0 | 6.0 | 0.00 | 0.00 | 0.00 | 53 | 1090.2 |
| 20260504184655 | 82 | 225 | 3.0 | 4.0 | 0.00 | 0.00 | 0.00 | 53 | 1089.8 |
| 20260504184150 | 81 | 233 | 6.0 | 7.0 | 0.00 | 0.00 | 0.00 | 55 | 1090.0 |
| 20260504183647 | 82 | 175 | 7.0 | 9.0 | 0.00 | 0.00 | 0.00 | 53 | 1090.1 |
| 20260504183145 | 82 | 199 | 5.0 | 7.0 | 0.00 | 0.00 | 0.00 | 54 | 1090.4 |
| 20260504182642 | 81 | 207 | 3.0 | 4.0 | 0.00 | 0.00 | 0.00 | 55 | 1090.7 |
| 20260504182140 | 81 | 205 | 3.0 | 4.0 | 0.00 | 0.00 | 0.00 | 56 | 1090.7 |
| 20260504181637 | 80 | 199 | 6.0 | 9.0 | 0.00 | 0.00 | 0.00 | 56 | 1090.7 |
| 20260504181135 | 80 | 272 | 4.0 | 4.0 | 0.00 | 0.00 | 0.00 | 55 | 1090.6 |
| 20260504180634 | 80 | 253 | 7.0 | 8.0 | 0.00 | 0.00 | 0.00 | 56 | 1090.6 |
| 20260504180132 | 80 | 192 | 5.0 | 8.0 | 0.00 | 0.00 | 0.00 | 57 | 1090.9 |
| 20260504175629 | 80 | 239 | 4.0 | 6.0 | 0.00 | 0.00 | 0.00 | 56 | 1091.1 |
| 20260504175125 | 79 | 196 | 5.0 | 7.0 | 0.00 | 0.00 | 0.00 | 60 | 1091.0 |
| 20260504174624 | 78 | 173 | 8.0 | 10.0 | 0.00 | 0.00 | 0.00 | 59 | 1090.9 |
| 20260504174120 | 77 | 161 | 6.0 | 10.0 | 0.00 | 0.00 | 0.00 | 61 | 1090.8 |
| 20260504173617 | 77 | 129 | 7.0 | 8.0 | 0.00 | 0.00 | 0.00 | 61 | 1091.0 |